Regional Weather Roundup
Issued by NWS

Home | Current Version | Previous Version | Graphics & Text | Print | Product List | Glossary On
Versions: 1 2 3 4 5 6 7 8 9 10 11 12 13 14 15 16 17 18 19 20 21 22 23 24 25 26 27 28 29 30 31 32 33 34 35 36 37 38 39 40 41 42 43 44 45 46 47 48 49 50
000
ASUS43 KOAX 060502
RWRNE

WEATHER ROUNDUP FOR NEBRASKA
NATIONAL WEATHER SERVICE OMAHA NE
1200 AM CDT MON JUL 06 2015

NOTES: SATELLITE DATA IS BEING USED TO AUGMENT CLOUD COVER ABOVE
       12000 FEET.
       "FAIR" INDICATES FEW OR NO CLOUDS BELOW 12,000 FEET WITH NO
       SIGNIFICANT WEATHER AND/OR OBSTRUCTIONS TO VISIBILITY.

  * THESE STATIONS DO NOT REPORT WEATHER SUCH AS RAIN...SNOW OR FOG.

NEZ001>004-019>022-054>056-060600-
NEBRASKA PANHANDLE

CITY           SKY/WX    TMP DP  RH WIND       PRES   REMARKS
SCOTTSBLUFF    CLOUDY    65  63  93 N21G32    30.03R
ALLIANCE       CLOUDY    64  62  93 N12       30.00R
CHADRON        LGT RAIN  62  60  93 N17G25    30.02S
KIMBALL          N/A    N/A N/A N/A MISG        N/A
SIDNEY         LGT RAIN  65  62  90 NW15      30.00S
$$

NEZ057>060-069>072-079>082-060600-
SOUTHWEST NEBRASKA

CITY           SKY/WX    TMP DP  RH WIND       PRES   REMARKS
NORTH PLATTE   LGT RAIN  70  66  87 N15       29.87R
IMPERIAL       CLOUDY    71  63  75 N21G29    29.90R
LEXINGTON      LGT RAIN  80  60  51 SW12      29.82R
MCCOOK         CLOUDY    76  64  66 E3        29.81R
$$

NEZ005>010-023>029-035>040-094-060600-
NORTH CENTRAL NEBRASKA

CITY           SKY/WX    TMP DP  RH WIND       PRES   REMARKS
VALENTINE      TSTM      66  64  93 N26G39    29.94R FOG
AINSWORTH      RAIN      67  67 100 NW14G25   29.91F
BROKEN BOW     CLOUDY    76  64  66 NW16G25   29.83R
ORD            CLOUDY    78  64  61 NW22G28   29.86R
$$

NEZ041-046>049-061>064-073>077-083>087-060600-
SOUTH CENTRAL NEBRASKA

CITY           SKY/WX    TMP DP  RH WIND       PRES   REMARKS
GRAND ISLAND   CLOUDY    83  62  49 S16       29.76F
AURORA         CLOUDY    83  64  52 S12G18    29.77S
HASTINGS       CLOUDY    85  62  46 S9G18     29.78R
KEARNEY *      CLOUDY    82  61  47 S28       29.75F
$$

NEZ011>018-030>034-042>045-060600-
NORTHEAST NEBRASKA

CITY           SKY/WX    TMP DP  RH WIND       PRES   REMARKS
NORFOLK        CLOUDY    81  72  74 S17G26    29.75R
BLAIR          CLOUDY    78  64  62 S15       29.80F
COLUMBUS *     CLOUDY    81  70  69 SE12G21   29.76R
FREMONT        CLOUDY    80  59  48 SE16G25   29.78F
TEKAMAH        CLOUDY    83  73  72 S16       29.78R
$$

NEZ050>053-065>068-078-088>093-060600-
SOUTHEAST NEBRASKA

CITY           SKY/WX    TMP DP  RH WIND       PRES   REMARKS
LINCOLN        CLOUDY    83  71  67 S17G23    29.78F
OMAHA EPPLEY   TSTM      79  73  82 S15G24    29.81F
FALLS CITY     CLOUDY    83  74  74 S14       29.82F
PLATTSMOUTH    CLOUDY    79  72  80 S7        29.83F
$$

NEZ044-045-051>053-067-060600-
OMAHA AREA

CITY           SKY/WX    TMP DP  RH WIND       PRES   REMARKS
OMAHA EPPLEY   TSTM      79  73  82 S15G24    29.81F
BLAIR          CLOUDY    78  64  62 S15       29.80F
FREMONT        CLOUDY    80  59  48 SE16G25   29.78F
MILLARD        CLOUDY    79  71  77 E7        29.81R
OFFUTT AFB     TSTM      77  74  88 NW7       29.82S
PLATTSMOUTH    CLOUDY    79  72  80 S7        29.83F
$$



USA.gov is the U.S. government's official web portal to all federal, state and local government web resources and services.